Location: Unspecified
(0.0000°N, 0.0000°E)
Time: 09:15:22
(UTC+00:00)

Vanguard 3 - Pass Details

Date: 26 September 2023
Orbit: 507 x 3241 km, 33.3° (Epoch: 06 December)

Event Time Altitude Azimuth Distance (km) Brightness Sun altitude
Rises 15:43:53 0° 239° (WSW) 7,202 12.8 31.9°
Reaches altitude 10° 15:48:52 10° 241° (WSW) 6,154 12.7 30.6°
Maximum altitude 16:07:57 70° 321° (NW) 2,715 10.4 25.8°
Drops below altitude 10° 16:20:14 10° 44° (NE) 4,161 10.4 22.8°
Sets 16:22:56 0° 47° (NE) 4,849 10.7 22.1°
